Thessaloniki, Greece

5:10 PM EEST on April 27, 2017 (GMT +0300)
Makedonia

Weather History for LGTS - October, 2012

Change the Weather History Date:

Saturday, October 6, 2012

  Actual Average Record
Temperature  
Mean Temperature 69 °F -  
Max Temperature 82 °F 68 °F 84 °F (2001)
Min Temperature 56 °F 50 °F 44 °F (2008)
Cooling Degree Days 4    
Growing Degree Days 19 (Base 50)    
Moisture  
Dew Point 54 °F    
Average Humidity 61    
Maximum Humidity 82    
Minimum Humidity 30    
Precipitation  
Precipitation 0.00 in 0.06 in - ()
Sea Level Pressure  
Sea Level Pressure 30.11 in    
Wind  
Wind Speed 5 mph ()    
Max Wind Speed 10 mph    
Max Gust Speed -    
Visibility 6.2 miles    
Events      
Averages and records for this station are not official NWS values.
T = Trace of Precipitation, MM = Missing Value Source: Averaged Metar Reports

Daily Weather History Graph

Daily Weather History Graph

Search for Another Location

Airport or City:

Trip Planner

Search our weather history database for the weather conditions in past years. The results will help you decide how hot, cold, wet, or windy it might be!

Date:

Astronomy

Oct. 06, 2012 Rise Set
Actual Time 7:29 AM EEST 7:01 PM EEST
Civil Twilight 7:02 AM EEST 7:29 PM EEST
Nautical Twilight 6:30 AM EEST 8:00 PM EEST
Astronomical Twilight 5:59 AM EEST 8:32 PM EEST
Moon 10:59 PM EEST (10/6) 1:11 PM EEST (10/6)
Length of Visible Light 12h 26m
Length of Day
11h 31m
Waning Gibbous, 68% of the Moon is Illuminated
Oct 6
Waning Gibbous
Oct 8
Last Quarter
Oct 15
New
Oct 22
First Quarter
Oct 29
Full

Hourly Weather History & Observations

Time (EEST) Temp. Dew Point Humidity Pressure Visibility Wind Dir Wind Speed Gust Speed Precip Events Conditions
12:20 AM 64.4 °F 55.4 °F 73% 30.09 in - ESE 6.9 mph - N/A   Clear
12:50 AM 62.6 °F 53.6 °F 72% 30.09 in - ESE 5.8 mph - N/A   Clear
1:20 AM 62.6 °F 53.6 °F 72% 30.09 in - ESE 5.8 mph - N/A   Clear
1:50 AM 62.6 °F 53.6 °F 72% 30.09 in - ESE 6.9 mph - N/A   Clear
2:20 AM 62.6 °F 53.6 °F 72% 30.09 in - ESE 6.9 mph - N/A   Clear
3:00 AM 62 °F 53 °F 65% 30.12 in 6 mi 3.5 mph - -  
3:50 AM 60.8 °F 51.8 °F 72% 30.09 in - Variable 3.5 mph - N/A   Clear
4:20 AM 60.8 °F 51.8 °F 72% 30.09 in - Variable 3.5 mph - N/A   Clear
4:50 AM 59.0 °F 51.8 °F 77% 30.09 in - ESE 5.8 mph - N/A   Clear
5:20 AM 59.0 °F 51.8 °F 77% 30.09 in - ESE 5.8 mph - N/A   Clear
5:50 AM 60.8 °F 51.8 °F 72% 30.12 in - Calm Calm - N/A   Clear
6:50 AM 60.8 °F 53.6 °F 77% 30.12 in - Calm Calm - N/A   Clear
7:20 AM 57.2 °F 51.8 °F 82% 30.12 in - ESE 4.6 mph - N/A   Clear
7:50 AM 57.2 °F 51.8 °F 82% 30.12 in - ESE 4.6 mph - N/A   Clear
8:20 AM 59.0 °F 51.8 °F 77% 30.15 in - ESE 4.6 mph - N/A   Clear
8:50 AM 62.6 °F 53.6 °F 72% 30.15 in - Variable 3.5 mph - N/A   Clear
9:00 AM 62 °F 53 °F 65% 30.17 in 6 mi 3.5 mph - -   Clear
9:20 AM 66.2 °F 55.4 °F 68% 30.15 in - Calm Calm - N/A   Clear
9:50 AM 68.0 °F 59.0 °F 73% 30.15 in - Variable 3.5 mph - N/A   Clear
10:20 AM 69.8 °F 59.0 °F 68% 30.15 in - Variable 3.5 mph - N/A   Clear
10:50 AM 69.8 °F 59.0 °F 68% 30.15 in - West 6.9 mph - N/A   Clear
11:20 AM 71.6 °F 59.0 °F 64% 30.15 in - West 5.8 mph - N/A   Clear
11:50 AM 71.6 °F 57.2 °F 60% 30.15 in 6.2 mi WNW 4.6 mph - N/A   Partly Cloudy
12:20 PM 73.4 °F 57.2 °F 57% 30.15 in 6.2 mi WNW 5.8 mph - N/A   Partly Cloudy
12:50 PM 75.2 °F 57.2 °F 53% 30.15 in 6.2 mi NW 5.8 mph - N/A   Partly Cloudy
1:20 PM 75.2 °F 57.2 °F 53% 30.15 in 6.2 mi NW 5.8 mph - N/A   Partly Cloudy
1:50 PM 77.0 °F 55.4 °F 47% 30.12 in 6.2 mi NW 6.9 mph - N/A   Partly Cloudy
2:20 PM 78.8 °F 57.2 °F 47% 30.12 in 6.2 mi NW 6.9 mph - N/A   Partly Cloudy
2:50 PM 78.8 °F 53.6 °F 42% 30.09 in 6.2 mi NW 6.9 mph - N/A   Partly Cloudy
3:00 PM 79 °F 54 °F 32% 30.12 in 6 mi NW 6.9 mph - -   Scattered Clouds
3:20 PM 78.8 °F 57.2 °F 47% 30.09 in 6.2 mi NW 6.9 mph - N/A   Partly Cloudy
3:50 PM 78.8 °F 57.2 °F 47% 30.09 in 6.2 mi NW 6.9 mph - N/A   Partly Cloudy
4:20 PM 82.4 °F 48.2 °F 30% 30.09 in 6.2 mi SSW 8.1 mph - N/A   Partly Cloudy
4:50 PM 82.4 °F 50.0 °F 32% 30.09 in 6.2 mi SSW 10.4 mph - N/A   Partly Cloudy
5:20 PM 80.6 °F 48.2 °F 32% 30.06 in 6.2 mi South 9.2 mph - N/A   Partly Cloudy
5:50 PM 80.6 °F 50.0 °F 34% 30.06 in 6.2 mi South 9.2 mph - N/A   Partly Cloudy
6:20 PM 78.8 °F 53.6 °F 42% 30.06 in 6.2 mi South 9.2 mph - N/A   Partly Cloudy
6:50 PM 77.0 °F 55.4 °F 47% 30.06 in 6.2 mi South 8.1 mph - N/A   Partly Cloudy
7:20 PM 75.2 °F 57.2 °F 53% 30.09 in - South 6.9 mph - N/A   Clear
7:50 PM 73.4 °F 57.2 °F 57% 30.09 in - Calm Calm - N/A   Clear
8:20 PM 73.4 °F 55.4 °F 53% 30.09 in - Variable 3.5 mph - N/A   Clear
8:50 PM 71.6 °F 57.2 °F 60% 30.09 in - Variable 3.5 mph - N/A   Clear
9:00 PM 71 °F 57 °F 51% 30.10 in 6 mi 3.5 mph - -   Clear
9:20 PM 68.0 °F 55.4 °F 64% 30.09 in - Variable 3.5 mph - N/A   Clear
9:50 PM 66.2 °F 55.4 °F 68% 30.09 in - Variable 3.5 mph - N/A   Clear
10:50 PM 64.4 °F 53.6 °F 68% 30.09 in - ESE 5.8 mph - N/A   Clear
11:20 PM 62.6 °F 53.6 °F 72% 30.09 in - East 5.8 mph - N/A   Clear
11:50 PM 62.6 °F 51.8 °F 68% 30.06 in - ESE 5.8 mph - N/A   Clear